WT9M-8 Weather Reports


Display with metric or nautical units.
time (UTC)temp
F
wind
direction
speed
MPH
gust
MPH
rain 1hr
in
rain 24hr
in
rain mn
in
humidity
%
barometer
mb
20260902000017 78 88 2.0 3.0 0.00 0.01 0.01 84 1012.7
20260901235033 79 106 2.0 4.0 0.00 0.01 0.01 83 1013.1
20260901234030 80 83 1.0 3.0 0.00 0.01 0.01 83 1013.2
20260901233026 81 83 1.0 2.0 0.00 0.01 0.01 82 1013.2
20260901232023 82 83 0.0 1.0 0.00 0.01 0.01 81 1012.6
20260901231020 82 91 1.0 2.0 0.00 0.01 0.01 81 1012.3
20260901230016 83 92 2.0 3.0 0.00 0.01 0.01 79 1012.5
20260901225034 84 111 1.0 2.0 0.00 0.01 0.01 78 1012.7
20260901224049 86 112 1.0 2.0 0.00 0.01 0.01 77 1012.5
20260901223026 86 112 1.0 1.0 0.00 0.01 0.01 76 1012.4
20260901222042 87 110 1.0 2.0 0.00 0.01 0.01 76 1012.5
20260901221018 88 206 2.0 3.0 0.00 0.01 0.01 76 1012.4
20260901220035 87 199 2.0 4.0 0.00 0.01 0.01 77 1012.4
20260901215032 87 122 0.0 1.0 0.00 0.01 0.01 77 1012.4
20260901214048 88 190 2.0 4.0 0.00 0.01 0.01 76 1012.4
20260901213025 87 215 3.0 6.0 0.00 0.01 0.01 78 1012.5
20260901212021 86 170 1.0 3.0 0.00 0.01 0.01 80 1012.5
20260901211017 85 107 0.0 1.0 0.00 0.01 0.01 78 1012.5
20260901210034 85 81 1.0 2.0 0.00 0.01 0.01 77 1012.0
20260901205031 87 89 1.0 2.0 0.00 0.01 0.01 74 1012.1
20260901204027 88 178 1.0 3.0 0.00 0.01 0.01 73 1012.8
20260901203024 90 222 2.0 4.0 0.00 0.01 0.01 72 1013.2
20260901202021 91 226 4.0 7.0 0.00 0.01 0.01 72 1013.2
20260901201017 91 212 2.0 4.0 0.00 0.01 0.01 72 1013.0
20260901200033 91 220 2.0 4.0 0.00 0.01 0.01 72 1013.1
20260901195030 92 193 2.0 6.0 0.00 0.01 0.01 71 1013.2
20260901194027 93 217 2.0 6.0 0.00 0.01 0.01 71 1013.0
20260901193023 94 175 2.0 4.0 0.00 0.01 0.01 71 1013.0
20260901192100 94 182 2.0 6.0 0.00 0.01 0.01 72 1013.1
20260901191016 94 193 1.0 4.0 0.00 0.01 0.01 73 1013.1
20260901190033 93 213 3.0 7.0 0.00 0.01 0.01 73 1013.2
20260901185029 94 271 2.0 8.0 0.00 0.01 0.01 75 1013.2
20260901184026 93 234 3.0 6.0 0.00 0.01 0.01 76 1013.1
20260901183022 93 233 2.0 6.0 0.00 0.01 0.01 78 1013.2
20260901182018 92 180 1.0 4.0 0.00 0.01 0.01 79 1013.3
20260901181055 91 179 1.0 6.0 0.00 0.01 0.01 79 1013.3
20260901180032 91 232 1.0 3.0 0.00 0.01 0.01 80 1013.4
20260901175028 90 217 1.0 4.0 0.00 0.01 0.01 81 1013.5
20260901174025 91 226 2.0 7.0 0.00 0.01 0.01 82 1013.7
20260901173021 91 287 2.0 4.0 0.00 0.01 0.01 83 1013.7
20260901172019 91 221 1.0 4.0 0.00 0.01 0.01 84 1013.7
20260901171034 91 204 1.0 4.0 0.00 0.01 0.01 85 1013.8
20260901170031 89 292 1.0 3.0 0.00 0.01 0.01 86 1013.9
20260901165028 89 34 1.0 2.0 0.00 0.01 0.01 86 1013.9
20260901164044 88 200 1.0 2.0 0.00 0.01 0.01 87 1014.0
20260901163020 87 209 2.0 3.0 0.00 0.01 0.01 87 1013.9
20260901162017 86 190 1.0 2.0 0.00 0.01 0.01 88 1014.2
20260901161034 85 187 1.0 3.0 0.00 0.01 0.01 89 1014.3
20260901160110 84 195 1.0 3.0 0.00 0.01 0.01 89 1014.3
20260901155027 83 188 1.0 2.0 0.00 0.01 0.01 90 1014.2
20260901154023 82 195 1.0 3.0 0.00 0.01 0.01 90 1014.2
20260901153020 80 288 1.0 2.0 0.00 0.01 0.01 91 1014.3
20260901152017 78 308 1.0 2.0 0.00 0.01 0.01 91 1014.1
20260901151033 78 325 0.0 1.0 0.00 0.01 0.01 91 1014.1
20260901150030 78 305 1.0 2.0 0.00 0.01 0.01 91 1014.2
20260901145026 77 291 0.0 2.0 0.00 0.01 0.01 91 1014.1
20260901144022 77 271 0.0 1.0 0.00 0.01 0.01 91 1014.1
20260901143019 77 0.0 0.0 0.00 0.01 0.01 91 1014.0
20260901142016 77 272 0.0 1.0 0.00 0.01 0.01 91 1014.0
20260901141032 76 284 0.0 2.0 0.00 0.01 0.01 91 1013.9
20260901140029 75 0.0 0.0 0.00 0.01 0.01 91 1014.0
20260901135045 74 0.0 0.0 0.00 0.01 0.01 91 1014.2
20260901134022 73 0.0 0.0 0.00 0.01 0.01 92 1014.5
20260901133019 73 105 0.0 1.0 0.00 0.01 0.01 92 1014.8
20260901132036 72 0.0 0.0 0.00 0.01 0.01 92 1014.6
20260901131032 71 0.0 0.0 0.00 0.01 0.01 91 1014.7
20260901130029 71 0.0 0.0 0.00 0.01 0.01 91 1014.5
20260901125025 71 0.0 0.0 0.00 0.01 0.01 91 1014.4
20260901124020 70 0.0 0.0 0.00 0.01 0.01 91 1014.2
20260901123016 70 0.0 0.0 0.00 0.01 0.01 91 1014.1
20260901122032 70 0.0 0.0 0.00 0.01 0.01 91 1013.8
20260901121028 69 0.0 0.0 0.00 0.01 0.01 91 1013.8
20260901120025 69 0.0 0.0 0.00 0.01 0.01 91 1013.8
20260901115021 69 0.0 0.0 0.00 0.01 0.01 91 1013.5
20260901114038 69 0.0 0.0 0.00 0.01 0.01 91 1013.5
20260901113035 69 0.0 0.0 0.00 0.01 0.01 91 1013.5
20260901112032 69 0.0 0.0 0.00 0.01 0.01 91 1013.6
20260901111028 69 0.0 0.0 0.00 0.01 0.01 91 1013.4
20260901110024 69 0.0 0.0 0.00 0.01 0.01 91 1013.3
20260901105021 69 0.0 0.0 0.00 0.01 0.01 91 1013.2
20260901104018 69 0.0 0.0 0.00 0.01 0.01 91 1013.3
20260901103034 69 0.0 0.0 0.00 0.01 0.01 91 1013.2
20260901102031 69 0.0 0.0 0.00 0.01 0.01 91 1013.3
20260901101027 69 0.0 0.0 0.00 0.01 0.01 91 1013.3
20260901100024 69 0.0 0.0 0.00 0.01 0.01 91 1013.2
20260901095021 68 107 0.0 1.0 0.00 0.01 0.01 91 1012.9
20260901094017 68 0.0 0.0 0.00 0.01 0.01 91 1013.0
20260901093034 68 113 1.0 2.0 0.00 0.01 0.01 91 1013.0
20260901092031 68 0.0 0.0 0.00 0.01 0.01 91 1013.0
20260901091027 68 0.0 0.0 0.00 0.01 0.01 91 1013.0
20260901090024 68 0.0 0.0 0.00 0.01 0.01 91 1012.9
20260901085020 68 0.0 0.0 0.00 0.01 0.01 91 1012.9
20260901084016 68 0.0 0.0 0.00 0.00 0.00 91 1012.9
20260901083033 68 0.0 0.0 0.00 0.00 0.00 91 1013.1
20260901082030 68 0.0 0.0 0.00 0.00 0.00 90 1013.0
20260901081106 68 0.0 0.0 0.00 0.00 0.00 90 1013.0
20260901080022 69 0.0 0.0 0.00 0.00 0.00 90 1013.0
20260901075019 69 0.0 0.0 0.00 0.00 0.00 90 1013.3
20260901074036 69 0.0 0.0 0.00 0.00 0.00 90 1013.2
20260901073032 69 0.0 0.0 0.00 0.00 0.00 90 1013.2
20260901072028 69 0.0 0.0 0.00 0.00 0.00 90 1013.0
20260901071025 69 0.0 0.0 0.00 0.00 0.00 90 1013.0
20260901070022 69 0.0 0.0 0.00 0.00 0.00 90 1013.0
20260901065018 69 0.0 0.0 0.00 0.00 0.00 90 1013.0
20260901064037 69 0.0 0.0 0.00 0.00 0.00 90 1012.9
20260901063033 69 0.0 0.0 0.00 0.00 0.00 90 1012.9
20260901062028 69 0.0 0.0 0.00 0.00 0.00 90 1012.9
20260901061024 69 0.0 0.0 0.00 0.00 0.00 90 1012.9
20260901055018 69 0.0 0.0 0.00 0.00 0.00 89 1012.8
20260901054034 69 0.0 0.0 0.00 0.00 0.00 89 1012.8
20260901053051 69 0.0 0.0 0.00 0.00 0.00 89 1012.8
20260901052028 69 0.0 0.0 0.00 0.00 0.00 89 1012.8
20260901051024 69 0.0 0.0 0.00 0.00 0.00 89 1012.7
20260901050020 69 0.0 0.0 0.00 0.00 0.00 89 1012.7
20260901045017 69 0.0 0.0 0.00 0.00 0.00 89 1012.5
20260901044033 69 0.0 0.0 0.00 0.00 0.00 89 1012.5
20260901043031 68 0.0 0.0 0.00 0.00 0.00 89 1012.6
20260901042028 68 0.0 0.0 0.00 0.00 0.00 89 1012.5
20260901041023 68 0.0 0.0 0.00 0.00 0.00 89 1012.5
20260901040020 68 0.0 0.0 0.00 0.00 0.00 89 1012.5
20260901035016 68 0.0 0.0 0.00 0.00 0.00 88 1012.6
20260901034033 68 0.0 0.0 0.00 0.00 0.00 88 1012.5
20260901033030 68 0.0 0.0 0.00 0.00 0.00 88 1012.5
20260901032026 68 0.0 0.0 0.00 0.00 0.00 88 1012.4
20260901031022 68 0.0 0.0 0.00 0.00 0.00 88 1012.6
20260901030059 69 0.0 0.0 0.00 0.00 0.00 88 1012.6
20260901025035 69 0.0 0.0 0.00 0.00 0.00 88 1012.6
20260901024032 70 0.0 0.0 0.00 0.00 0.00 88 1012.6
20260901023029 70 0.0 0.0 0.00 0.00 0.00 87 1012.6
20260901022025 70 0.0 0.0 0.00 0.00 0.00 87 1012.7
20260901021042 71 0.0 0.0 0.00 0.00 0.00 87 1012.6
20260901020018 71 0.0 0.0 0.00 0.00 0.00 87 1012.6
20260901015034 72 0.0 0.0 0.00 0.00 0.00 86 1012.5
20260901014031 73 122 1.0 2.0 0.00 0.00 0.00 86 1012.2
20260901013028 73 123 1.0 2.0 0.00 0.00 0.00 86 1012.0
20260901012024 74 0.0 0.0 0.00 0.00 0.00 86 1011.9
20260901011020 75 0.0 0.0 0.00 0.00 0.00 86 1011.7
20260901010016 75 124 1.0 1.0 0.00 0.00 0.00 85 1011.7
20260901005032 76 126 1.0 2.0 0.00 0.00 0.00 85 1011.8
20260901004049 77 94 2.0 3.0 0.00 0.00 0.00 84 1011.7
20260901003026 78 102 2.0 3.0 0.00 0.00 0.00 84 1011.7
20260901002022 80 90 3.0 4.0 0.00 0.00 0.00 83 1011.6
20260901001018 81 79 2.0 4.0 0.00 0.11 0.00 82 1011.5